DW4070 Weather Reports


Display with metric or nautical units.
time (UTC)temp
F
wind
direction
speed
MPH
gust
MPH
rain 1hr
in
rain 24hr
in
rain mn
in
humidity
%
barometer
mb
20260901234523 67 285 0.0 3.0 0.00 0.88 0.88 91 1017.3
20260901233047 68 285 1.0 4.0 0.00 0.88 0.88 91 1017.2
20260901231522 68 285 1.0 5.0 0.00 0.88 0.88 91 1016.6
20260901230032 69 284 1.0 6.0 0.00 0.88 0.88 90 1016.7
20260901224520 70 281 0.0 5.0 0.00 0.88 0.88 92 1016.3
20260901223020 71 281 0.0 3.0 0.00 0.88 0.88 93 1016.0
20260901221519 72 281 0.0 2.0 0.00 0.88 0.88 92 1015.9
20260901220018 73 281 3.0 7.0 0.00 0.88 0.88 92 1015.8
20260901214533 74 286 2.0 4.0 0.00 0.88 0.88 92 1015.8
20260901213017 75 286 0.0 3.0 0.00 0.88 0.88 92 1015.7
20260901211517 75 286 0.0 2.0 0.00 0.88 0.88 93 1015.5
20260901210016 75 286 0.0 2.0 0.00 0.88 0.88 92 1015.6
20260901204520 76 286 0.0 0.0 0.00 0.88 0.88 93 1015.6
20260901203018 76 286 0.0 0.0 0.00 0.88 0.88 92 1015.4
20260901201515 76 286 0.0 0.0 0.00 0.88 0.88 92 1015.3
20260901200022 76 286 0.0 2.0 0.00 0.88 0.88 91 1015.5
20260901194517 76 286 0.0 2.0 0.00 0.88 0.88 93 1015.4
20260901193011 76 286 0.0 0.0 0.00 0.88 0.88 94 1015.5
20260901191510 75 286 0.0 2.0 0.00 0.88 0.88 95 1015.5
20260901190009 74 286 0.0 0.0 0.00 0.88 0.88 94 1015.5
20260901184505 74 286 0.0 0.0 0.00 0.88 0.88 95 1015.4
20260901183003 74 286 0.0 2.0 0.00 0.88 0.88 96 1015.5
20260901181503 73 286 0.0 0.0 0.00 0.88 0.88 96 1015.6
20260901180059 73 286 0.0 2.0 0.00 0.88 0.88 96 1015.8
20260901174602 73 286 0.0 2.0 0.00 0.88 0.88 96 1015.7
20260901173056 72 286 0.0 2.0 0.02 0.88 0.88 97 1015.8
20260901171556 72 286 0.0 1.0 0.03 0.88 0.88 97 1015.8
20260901170056 72 286 0.0 0.0 0.03 0.88 0.88 97 1015.8
20260901164602 71 286 0.0 0.0 0.06 0.88 0.88 97 1015.8
20260901163050 71 286 0.0 0.0 0.07 0.86 0.86 97 1016.1
20260901161550 71 286 0.0 1.0 0.08 0.85 0.85 97 1016.7
20260901160046 71 286 0.0 0.0 0.08 0.85 0.85 96 1017.1
20260901154547 71 286 0.0 0.0 0.05 0.82 0.82 96 1017.1
20260901153049 71 286 0.0 0.0 0.04 0.79 0.79 96 1017.2
20260901151545 71 286 0.0 2.0 0.05 0.77 0.77 96 1016.8
20260901150044 70 265 0.0 2.0 0.10 0.77 0.77 96 1016.9
20260901144543 70 265 0.0 0.0 0.12 0.77 0.77 96 1017.0
20260901143043 70 265 0.0 2.0 0.10 0.75 0.75 96 1017.0
20260901141545 70 265 0.0 0.0 0.07 0.72 0.72 96 1017.6
20260901140040 70 265 0.0 0.0 0.02 0.67 0.67 96 1017.3
20260901134539 70 265 0.0 0.0 0.00 0.65 0.65 96 1017.1
20260901133039 70 265 0.0 0.0 0.00 0.65 0.65 96 1017.2
20260901131538 70 265 0.0 0.0 0.00 0.65 0.65 96 1017.0
20260901130034 70 265 0.0 0.0 0.00 0.65 0.65 96 1017.1
20260901124536 69 265 0.0 0.0 0.00 0.65 0.65 96 1017.1
20260901123040 69 265 0.0 0.0 0.00 0.65 0.65 96 1017.2
20260901121537 69 265 0.0 0.0 0.00 0.65 0.65 96 1017.2
20260901120031 69 265 0.0 0.0 0.00 0.65 0.65 96 1017.2
20260901114534 68 265 0.0 0.0 0.00 0.65 0.65 96 1017.4
20260901113029 68 265 0.0 0.0 0.00 0.65 0.65 96 1016.8
20260901111529 68 265 0.0 0.0 0.00 0.65 0.65 96 1017.1
20260901110028 68 265 0.0 0.0 0.00 0.65 0.65 96 1017.4
20260901104533 68 265 0.0 0.0 0.00 0.65 0.65 96 1017.3
20260901103026 68 265 0.0 0.0 0.00 0.65 0.65 96 1017.4
20260901101527 68 265 0.0 0.0 0.00 0.65 0.65 96 1017.1
20260901100024 68 265 0.0 0.0 0.00 0.65 0.65 96 1017.0
20260901094523 68 265 0.0 0.0 0.00 0.65 0.65 96 1017.1
20260901093021 68 265 0.0 0.0 0.00 0.65 0.65 96 1017.1
20260901091521 68 265 0.0 0.0 0.00 0.65 0.65 96 1017.2
20260901090020 68 265 0.0 0.0 0.00 0.65 0.65 96 1017.2
20260901084519 68 265 0.0 0.0 0.01 0.65 0.65 96 1017.3
20260901083019 68 265 0.0 0.0 0.01 0.65 0.65 96 1017.5
20260901081515 68 265 0.0 0.0 0.01 0.65 0.65 96 1017.7
20260901080014 67 265 0.0 0.0 0.01 0.65 0.65 96 1017.7
20260901074512 67 265 0.0 0.0 0.00 0.64 0.64 95 1017.8
20260901073012 67 265 0.0 0.0 0.02 0.64 0.64 95 1017.9
20260901071514 67 265 0.0 0.0 0.09 0.64 0.64 95 1017.9
20260901070009 67 265 0.0 0.0 0.23 0.64 0.64 95 1018.0
20260901064509 67 265 0.0 0.0 0.32 0.64 0.64 95 1018.0
20260901063016 67 265 0.0 0.0 0.42 0.62 0.62 95 1018.2
20260901061505 67 265 0.0 0.0 0.40 0.55 0.55 94 1018.3
20260901060003 67 265 0.0 1.0 0.31 0.40 0.40 94 1018.4
20260901054502 67 265 0.0 0.0 0.27 0.31 0.31 94 1018.5
20260901053121 68 265 0.0 2.0 0.20 0.20 0.20 93 1018.6
20260901051611 68 265 0.0 2.0 0.15 0.15 0.15 94 1018.7
20260901050055 68 265 0.0 0.0 0.09 0.09 0.09 93 1018.8
20260901044553 68 265 0.0 0.0 0.04 0.04 0.04 93 1018.8
20260901043100 69 265 0.0 0.0 0.00 0.00 0.00 93 1018.9
20260901041603 69 265 0.0 0.0 0.00 0.00 0.00 93 1018.8
20260901040050 69 265 0.0 0.0 0.00 0.00 0.00 93 1018.8
20260901034549 69 265 0.0 0.0 0.00 0.00 0.00 92 1018.8
20260901033048 69 265 0.0 0.0 0.00 0.00 0.00 93 1018.9
20260901031556 69 265 0.0 0.0 0.00 0.00 0.00 92 1019.1
20260901030045 69 265 0.0 0.0 0.00 0.00 0.00 92 1019.3
20260901024545 69 265 0.0 0.0 0.00 0.01 0.00 92 1019.4
20260901023045 69 265 0.0 0.0 0.00 0.01 0.00 92 1019.4
20260901021544 69 265 0.0 0.0 0.00 0.01 0.00 92 1019.4
20260901020043 69 265 0.0 0.0 0.00 0.01 0.00 91 1019.5
20260901014546 69 265 0.0 2.0 0.00 0.03 0.00 91 1019.5
20260901013042 69 265 0.0 0.0 0.00 0.03 0.00 91 1019.5
20260901011542 69 265 0.0 0.0 0.00 0.03 0.00 91 1019.6
20260901010041 69 265 0.0 0.0 0.00 0.03 0.00 90 1019.5
20260901004542 69 265 0.0 0.0 0.00 0.06 0.00 90 1019.4
20260901003040 70 265 0.0 0.0 0.00 0.06 0.00 90 1019.4
20260901001550 70 265 0.0 0.0 0.00 0.06 0.00 89 1019.3
20260901000039 70 265 0.0 0.0 0.00 0.06 0.00 89 1019.1